TimeEST,TemperatureF,Dew PointF,Humidity,Sea Level PressureIn,VisibilityMPH,Wind Direction,Wind SpeedMPH,Gust SpeedMPH,PrecipitationIn,Events,Conditions,WindDirDegrees,DateUTC
12:54 AM,28.0,27.0,96,29.86,-9999.0,Calm,Calm,-,N/A,,Unknown,0,2014-01-18 05:54:00
1:54 AM,28.9,27.0,92,29.85,-9999.0,North,4.6,-,N/A,,Unknown,360,2014-01-18 06:54:00
2:54 AM,28.9,27.0,92,29.83,-9999.0,Variable,3.5,-,N/A,,Unknown,0,2014-01-18 07:54:00
3:54 AM,30.0,27.0,88,29.80,-9999.0,Variable,3.5,-,N/A,,Unknown,0,2014-01-18 08:54:00
4:54 AM,30.0,27.0,88,29.79,-9999.0,NNE,5.8,-,N/A,,Unknown,30,2014-01-18 09:54:00
5:54 AM,28.9,27.0,92,29.77,-9999.0,NE,5.8,-,N/A,,Unknown,40,2014-01-18 10:54:00
6:54 AM,30.0,28.0,92,29.76,-9999.0,Calm,Calm,-,N/A,,Unknown,0,2014-01-18 11:54:00
7:54 AM,30.0,28.0,92,29.77,-9999.0,Calm,Calm,-,0.02,,Unknown,0,2014-01-18 12:54:00
8:54 AM,30.0,30.0,100,29.78,-9999.0,Calm,Calm,-,0.06,,Unknown,0,2014-01-18 13:54:00
9:54 AM,30.9,30.9,100,29.79,-9999.0,Calm,Calm,-,0.05,,Unknown,0,2014-01-18 14:54:00
10:54 AM,34.0,30.0,85,29.76,-9999.0,Variable,3.5,-,N/A,,Unknown,0,2014-01-18 15:54:00
11:54 AM,34.0,28.0,79,29.74,-9999.0,Variable,5.8,-,N/A,,Unknown,0,2014-01-18 16:54:00
12:54 PM,34.0,24.1,67,29.73,-9999.0,Variable,3.5,-,N/A,,Unknown,0,2014-01-18 17:54:00
1:54 PM,33.1,24.1,70,29.74,-9999.0,Variable,4.6,-,N/A,,Unknown,0,2014-01-18 18:54:00
2:54 PM,32.0,23.0,69,29.75,-9999.0,Variable,5.8,-,N/A,,Unknown,0,2014-01-18 19:54:00
3:54 PM,30.9,21.0,67,29.78,-9999.0,Variable,3.5,-,N/A,,Unknown,0,2014-01-18 20:54:00
4:54 PM,28.9,19.0,67,29.82,-9999.0,Variable,5.8,17.3,N/A,,Unknown,0,2014-01-18 21:54:00
5:54 PM,28.9,18.0,64,29.82,-9999.0,Variable,5.8,-,N/A,,Unknown,0,2014-01-18 22:54:00
6:54 PM,27.0,18.0,69,29.85,-9999.0,Variable,6.9,-,N/A,,Unknown,0,2014-01-18 23:54:00
7:54 PM,27.0,17.1,66,29.86,-9999.0,Variable,4.6,-,N/A,,Unknown,0,2014-01-19 00:54:00
8:54 PM,26.1,17.1,69,29.88,-9999.0,Variable,5.8,-,N/A,,Unknown,0,2014-01-19 01:54:00
9:54 PM,25.0,16.0,69,29.87,-9999.0,Variable,3.5,-,N/A,,Unknown,0,2014-01-19 02:54:00
10:54 PM,24.1,15.1,69,29.88,-9999.0,Calm,Calm,-,N/A,,Unknown,0,2014-01-19 03:54:00
11:54 PM,23.0,14.0,68,29.89,-9999.0,Calm,Calm,-,N/A,,Unknown,0,2014-01-19 04:54:00